This is the latest recevied weather packets stored in our database for station/object KC8BSD. If no packets are shown the sender has not sent any weather packets the latest 10 day(s).
| Time | Temp. | Humidity | Pressure | Rain* | Wind** | Luminosity | Snow |
|---|---|---|---|---|---|---|---|
| 1778168362 | 11.11° C | 47% | 1014.5 hPa | 0 mm | - | 179 W/m² | - |
| 1778168058 | 12.22° C | 46% | 1014.3 hPa | 0 mm | - | 632 W/m² | - |
| 1778167754 | 12.78° C | 46% | 1014.3 hPa | 0 mm | - | 268 W/m² | - |
| 1778167450 | 12.22° C | 46% | 1014.1 hPa | 0 mm | - | 709 W/m² | - |
| 1778167147 | 12.22° C | 46% | 1014.3 hPa | 0 mm | - | 695 W/m² | - |
| 1778166843 | 12.78° C | 44% | 1014.1 hPa | 0 mm | - | 718 W/m² | - |
| 1778166540 | 12.78° C | 47% | 1014.1 hPa | 0 mm | - | 639 W/m² | - |
| 1778166237 | 11.67° C | 47% | 1014.2 hPa | 0 mm | - | 221 W/m² | - |
| 1778165933 | 11.67° C | 48% | 1014.1 hPa | 0 mm | - | 582 W/m² | - |
| 1778165629 | 12.78° C | 47% | 1014.3 hPa | 0 mm | - | 612 W/m² | - |
| 1778165327 | 11.67° C | 50% | 1014.2 hPa | 0 mm | - | 573 W/m² | - |
| 1778165024 | 11.67° C | 49% | 1014.2 hPa | 0 mm | - | 467 W/m² | - |
| 1778164720 | 11.11° C | 50% | 1014.2 hPa | 0 mm | - | 140 W/m² | - |
| 1778164418 | 10.56° C | 51% | 1014.2 hPa | 0 mm | - | 108 W/m² | - |
| 1778164114 | 10.56° C | 51% | 1014.3 hPa | 0 mm | - | 88 W/m² | - |
| 1778163810 | 11.67° C | 49% | 1014.3 hPa | 0 mm | - | 555 W/m² | - |
| 1778163507 | 11.67° C | 47% | 1014.3 hPa | 0 mm | - | 471 W/m² | - |
| 1778163203 | 12.78° C | 47% | 1014.2 hPa | 0 mm | - | 490 W/m² | - |
| 1778162900 | 11.67° C | 52% | 1014 hPa | 0 mm | - | 479 W/m² | - |
| 1778162597 | 12.22° C | 49% | 1014.1 hPa | 0 mm | - | 478 W/m² | - |
| 1778162295 | 11.67° C | 50% | 1014.3 hPa | 0 mm | - | 466 W/m² | - |
| 1778161992 | 11.67° C | 52% | 1014.3 hPa | 0 mm | - | 450 W/m² | - |
| 1778161689 | 11.67° C | 49% | 1014.1 hPa | 0 mm | - | 404 W/m² | - |
| 1778161385 | 11.67° C | 51% | 1014.2 hPa | 0 mm | - | 423 W/m² | - |
| 1778161080 | 10.56° C | 49% | 1014.3 hPa | 0 mm | - | 433 W/m² | - |
* Rain latest hour (hover to see other rain measurements)
** Current wind speed in m/s (hover to see current wind gust speed)